Skip Page Navigation
NASA JPL Caltech
NASA Logo - Jet Propulsion Laboratory + View the NASA Portal
+ Center for Near-Earth Object Studies
JPL Home Earth Solar System Stars & Galaxies Technology
JPL Solar System Dynamics
BODIES ORBITS EPHEMERIDES TOOLS PHYSICAL DATA DISCOVERY FAQ SITE MAP
IMPORTANT: The SSD Announcement email list is now available. Major changes are coming in the near future, including possible hostname and/or URL changes. To be notified of such changes, subscribe to this email list.

Please visit this page for more details.


JPL Small-Body Database Browser
Search: [ help ]  
11033 Mazanek (1988 SH3)
Classification: Main-belt Asteroid          SPK-ID: 2011033
Ephemeris | Orbit Diagram | Orbital Elements | Mission Design | Physical Parameters | Discovery Circumstances ]

[ show orbit diagram ]
Orbital Elements at Epoch 2459000.5 (2020-May-31.0) TDB
Reference: JPL 27 (heliocentric ecliptic J2000)
 Element Value Uncertainty (1-sigma)   Units 
e .1477119950154332 4.3026e-08  
a 2.522227870983589 1.1921e-08 au
q 2.149664560277074 1.0955e-07 au
i 12.93693602738621 3.6435e-06 deg
node 97.84504245575299 1.968e-05 deg
peri 250.7575295281859 2.2293e-05 deg
M 331.881976248668 1.2473e-05 deg
tp 2459114.776570932143
(2020-Sep-22.27657093)
5.1008e-05 TDB
period 1463.103022438497
4.01
1.0373e-05
2.84e-08
d
yr
n .2460523930843926 1.7444e-09 deg/d
Q 2.894791181690104 1.3682e-08 au
  Orbit Determination Parameters
   # obs. used (total)      1412  
   data-arc span      11194 days (30.65 yr)  
   first obs. used      1988-09-16  
   last obs. used      2019-05-11  
   planetary ephem.      DE431  
   SB-pert. ephem.      SB431-N16  
   condition code      0  
   norm. resid. RMS      .5141  
   source      ORB  
   producer      Otto Matic  
   solution date      2019-May-30 01:52:49  

Additional Information
 Earth MOID = 1.18095 au 
 Jupiter MOID = 2.54777 au 
 T_jup = 3.405 
[ show covariance matrix ]

Ephemeris | Orbit Diagram | Orbital Elements | Mission Design | Physical Parameters | Discovery Circumstances ]

Physical Parameter Table
Parameter Symbol Value Units Sigma Reference Notes
absolute magnitude H 14.3   n/a MPO435803  
diameter diameter 3.507 km 0.520 urn:nasa:pds:neowise_diameters_albedos::2.0[mainbelt] (http://adsabs.harvard.edu/abs/2011ApJ...741...68M)  
geometric albedo albedo 0.300   0.113 urn:nasa:pds:neowise_diameters_albedos::2.0[mainbelt] (http://adsabs.harvard.edu/abs/2011ApJ...741...68M)  

11033 Mazanek           Discovered 1988 Sept. 16 by S. J. Bus at Cerro Tololo.
Dan Mazanek (b. 1966) is a space systems engineer at NASA Langley Research Center specializing in the development of asteroid mission concepts.
NOTE: some special characters may not display properly (any characters within {} are an attempt to place the proper accent above a character)
Reference: MPC batch dated 2017-03-12Last Updated: 2017-04-19

Alternate Designations
 1988 SH3 = 1992 RK = 1999 JB87 
Ephemeris | Orbit Diagram | Orbital Elements | Mission Design | Physical Parameters | Discovery Circumstances ]
ABOUT SSD CREDITS/AWARDS PRIVACY/COPYRIGHT GLOSSARY LINKS
FirstGov 2020-Feb-28 13:15 UT
(server date/time)  
NASA Home Page
Site Manager:   Ryan S. Park
Webmaster  Alan B. Chamberlin